• In Czech Republic
  • List of Countries
  • For 7 days
  • Water Temperature
  • Satellite Maps
  • Weather Map
  • Weather Widgets
  • user-avatar
    Login

    Hourly Weather Ziolkowo

    Today, 25 April, Wednesday

    Time Temperature Precipitation Wind Pressure Humidity
    00:00 +10°C° 0 mm 4 mps 741 mmHg 87%
    01:00 +8°C° 0 mm 4 mps 741 mmHg 88%
    02:00 +8°C° 0 mm 3 mps 741 mmHg 91%
    03:00 +8°C° 0 mm 3 mps 741 mmHg 92%
    04:00 +7°C° 0 mm 3 mps 741 mmHg 93%
    05:00 +7°C° 0 mm 3 mps 741 mmHg 93%
    06:00 +8°C° 0 mm 3 mps 741 mmHg 88%
    07:00 +8°C° 0 mm 4 mps 741 mmHg 83%
    08:00 +10°C° 0 mm 4 mps 741 mmHg 78%
    09:00 +10°C° 0.3 mm 4 mps 740 mmHg 78%
    10:00 +9°C° 0.3 mm 5 mps 740 mmHg 79%
    11:00 +10°C° 0.3 mm 5 mps 740 mmHg 79%
    12:00 +10°C° 1.4 mm 4 mps 739 mmHg 83%
    13:00 +10°C° 1.4 mm 3 mps 738 mmHg 87%
    14:00 +10°C° 1.4 mm 3 mps 737 mmHg 91%
    15:00 +10°C° 2.1 mm 3 mps 736 mmHg 91%
    16:00 +10°C° 2.1 mm 3 mps 736 mmHg 92%
    17:00 +11°C° 2.1 mm 3 mps 735 mmHg 93%
    18:00 +11°C° 0.5 mm 3 mps 735 mmHg 93%
    19:00 +11°C° 0.5 mm 3 mps 735 mmHg 93%
    20:00 +11°C° 0.5 mm 3 mps 735 mmHg 93%
    21:00 +10°C° 0.1 mm 4 mps 735 mmHg 93%
    22:00 +9°C° 0.1 mm 5 mps 735 mmHg 92%
    23:00 +8°C° 0.1 mm 5 mps 735 mmHg 91%

    Tomorrow, 26 April, Thursday

    Time Temperature Precipitation Wind Pressure Humidity
    00:00 +7°C° 0 mm 6 mps 736 mmHg 90%
    01:00 +5°C° 0 mm 6 mps 737 mmHg 89%
    02:00 +3°C° 0 mm 6 mps 737 mmHg 87%
    03:00 +3°C° 0 mm 6 mps 738 mmHg 89%
    04:00 +3°C° 0 mm 5 mps 738 mmHg 90%
    05:00 +2°C° 0 mm 5 mps 739 mmHg 92%
    06:00 +3°C° 0 mm 5 mps 739 mmHg 90%
    07:00 +4°C° 0 mm 6 mps 740 mmHg 88%
    08:00 +4°C° 0 mm 6 mps 740 mmHg 86%
    09:00 +5°C° 0 mm 6 mps 741 mmHg 82%
    10:00 +7°C° 0 mm 6 mps 741 mmHg 77%
    11:00 +8°C° 0 mm 6 mps 741 mmHg 72%
    12:00 +9°C° 0.3 mm 6 mps 741 mmHg 69%
    13:00 +10°C° 0.3 mm 6 mps 741 mmHg 65%
    14:00 +11°C° 0.3 mm 6 mps 741 mmHg 62%
    15:00 +12°C° 0.2 mm 5 mps 741 mmHg 63%
    16:00 +12°C° 0.2 mm 5 mps 741 mmHg 64%
    17:00 +12°C° 0.2 mm 5 mps 741 mmHg 65%
    18:00 +10°C° 0.2 mm 4 mps 741 mmHg 71%
    19:00 +9°C° 0.2 mm 2 mps 741 mmHg 78%
    20:00 +9°C° 0.2 mm 1 mps 741 mmHg 85%
    21:00 +8°C° 0.2 mm 1 mps 742 mmHg 87%
    22:00 +8°C° 0.2 mm 1 mps 742 mmHg 89%
    23:00 +8°C° 0.2 mm 1 mps 742 mmHg 91%

    Day after tomorrow, 27 April, Friday

    Time Temperature Precipitation Wind Pressure Humidity
    00:00 +6°C° 0.1 mm 2 mps 742 mmHg 92%
    01:00 +6°C° 0.1 mm 2 mps 742 mmHg 94%
    02:00 +6°C° 0.1 mm 2 mps 743 mmHg 95%
    03:00 +4°C° 0 mm 3 mps 743 mmHg 95%
    04:00 +4°C° 0 mm 3 mps 743 mmHg 95%
    05:00 +4°C° 0 mm 3 mps 743 mmHg 96%
    06:00 +4°C° 0 mm 4 mps 744 mmHg 92%
    07:00 +5°C° 0 mm 4 mps 744 mmHg 88%
    08:00 +6°C° 0 mm 5 mps 744 mmHg 84%
    09:00 +7°C° 0.1 mm 5 mps 745 mmHg 78%
    10:00 +8°C° 0.1 mm 5 mps 745 mmHg 71%
    11:00 +10°C° 0.1 mm 5 mps 745 mmHg 65%
    12:00 +10°C° 0.1 mm 5 mps 746 mmHg 60%
    13:00 +12°C° 0.1 mm 5 mps 746 mmHg 56%
    14:00 +12°C° 0.1 mm 5 mps 746 mmHg 51%
    15:00 +12°C° 0 mm 5 mps 746 mmHg 52%
    16:00 +12°C° 0 mm 4 mps 746 mmHg 52%
    17:00 +12°C° 0 mm 4 mps 746 mmHg 53%
    18:00 +11°C° 0 mm 3 mps 746 mmHg 59%
    19:00 +9°C° 0 mm 2 mps 746 mmHg 66%
    20:00 +9°C° 0 mm 1 mps 747 mmHg 72%
    21:00 +8°C° 0 mm 1 mps 747 mmHg 73%
    22:00 +8°C° 0 mm 1 mps 747 mmHg 73%
    23:00 +8°C° 0 mm 1 mps 747 mmHg 74%

    28 April, Saturday

    Time Temperature Precipitation Wind Pressure Humidity
    00:00 +7°C° 0 mm 2 mps 747 mmHg 75%
    01:00 +6°C° 0 mm 2 mps 747 mmHg 77%
    02:00 +6°C° 0 mm 2 mps 747 mmHg 78%
    03:00 +5°C° 0 mm 3 mps 746 mmHg 78%
    04:00 +5°C° 0 mm 3 mps 746 mmHg 77%
    05:00 +5°C° 0 mm 3 mps 746 mmHg 77%
    06:00 +7°C° 0 mm 4 mps 745 mmHg 73%
    07:00 +8°C° 0 mm 4 mps 745 mmHg 69%
    08:00 +10°C° 0 mm 5 mps 745 mmHg 65%
    09:00 +12°C° 0 mm 5 mps 745 mmHg 64%
    10:00 +13°C° 0 mm 6 mps 744 mmHg 63%
    11:00 +14°C° 0 mm 6 mps 744 mmHg 62%
    12:00 +16°C° 0 mm 6 mps 743 mmHg 60%
    13:00 +17°C° 0 mm 6 mps 743 mmHg 58%
    14:00 +18°C° 0 mm 7 mps 743 mmHg 57%
    15:00 +19°C° 0.2 mm 6 mps 743 mmHg 60%
    16:00 +19°C° 0.2 mm 6 mps 742 mmHg 63%
    17:00 +19°C° 0.2 mm 6 mps 742 mmHg 66%
    18:00 +16°C° 0.1 mm 5 mps 743 mmHg 71%
    19:00 +14°C° 0.1 mm 4 mps 743 mmHg 75%
    20:00 +13°C° 0.1 mm 4 mps 743 mmHg 80%
    21:00 +11°C° 0 mm 3 mps 744 mmHg 84%
    22:00 +10°C° 0 mm 2 mps 744 mmHg 88%
    23:00 +9°C° 0 mm 1 mps 745 mmHg 91%

    29 April, Sunday

    Time Temperature Precipitation Wind Pressure Humidity
    00:00 +9°C° 0 mm 1 mps 745 mmHg 92%
    01:00 +8°C° 0 mm 2 mps 745 mmHg 93%
    02:00 +7°C° 0 mm 2 mps 746 mmHg 93%
    03:00 +7°C° 0 mm 2 mps 746 mmHg 94%
    04:00 +6°C° 0 mm 2 mps 746 mmHg 95%
    05:00 +6°C° 0 mm 2 mps 747 mmHg 95%
    06:00 +7°C° 0 mm 2 mps 747 mmHg 90%
    07:00 +8°C° 0 mm 2 mps 747 mmHg 85%
    08:00 +10°C° 0 mm 2 mps 748 mmHg 80%
    09:00 +12°C° 0 mm 1 mps 748 mmHg 73%
    10:00 +14°C° 0 mm 1 mps 748 mmHg 66%
    11:00 +15°C° 0 mm 1 mps 748 mmHg 60%
    12:00 +16°C° 0 mm 1 mps 748 mmHg 56%
    13:00 +18°C° 0 mm 1 mps 748 mmHg 52%
    14:00 +19°C° 0 mm 1 mps 748 mmHg 49%
    15:00 +19°C° 0 mm 1 mps 748 mmHg 49%
    16:00 +19°C° 0 mm 1 mps 748 mmHg 48%
    17:00 +19°C° 0 mm 1 mps 747 mmHg 48%
    18:00 +18°C° 0 mm 1 mps 747 mmHg 54%
    19:00 +15°C° 0 mm 2 mps 747 mmHg 60%
    20:00 +14°C° 0 mm 2 mps 747 mmHg 66%
    21:00 +13°C° 0 mm 2 mps 747 mmHg 69%
    22:00 +11°C° 0 mm 3 mps 747 mmHg 71%
    23:00 +10°C° 0 mm 3 mps 747 mmHg 74%

    30 April, Monday

    Time Temperature Precipitation Wind Pressure Humidity
    00:00 +10°C° 0 mm 3 mps 747 mmHg 75%
    01:00 +10°C° 0 mm 3 mps 747 mmHg 76%
    02:00 +9°C° 0 mm 3 mps 746 mmHg 78%
    03:00 +10°C° 0 mm 4 mps 746 mmHg 77%
    04:00 +10°C° 0 mm 4 mps 746 mmHg 77%
    05:00 +10°C° 0 mm 4 mps 746 mmHg 76%
    06:00 +10°C° 0 mm 5 mps 746 mmHg 75%
    07:00 +12°C° 0 mm 5 mps 745 mmHg 73%
    08:00 +13°C° 0 mm 5 mps 745 mmHg 71%
    09:00 +15°C° 0 mm 5 mps 745 mmHg 69%
    10:00 +17°C° 0 mm 6 mps 745 mmHg 67%
    11:00 +20°C° 0 mm 6 mps 744 mmHg 64%
    12:00 +21°C° 0 mm 6 mps 744 mmHg 62%
    13:00 +22°C° 0 mm 6 mps 743 mmHg 60%
    14:00 +25°C° 0 mm 5 mps 743 mmHg 57%
    15:00 +25°C° 0 mm 5 mps 742 mmHg 57%
    16:00 +25°C° 0 mm 5 mps 742 mmHg 57%
    17:00 +25°C° 0 mm 4 mps 741 mmHg 57%
    18:00 +22°C° 0 mm 4 mps 741 mmHg 64%
    19:00 +20°C° 0 mm 4 mps 741 mmHg 71%
    20:00 +18°C° 0 mm 3 mps 741 mmHg 78%
    21:00 +18°C° 0.5 mm 3 mps 741 mmHg 81%
    22:00 +17°C° 0.5 mm 3 mps 741 mmHg 85%
    23:00 +16°C° 0.5 mm 3 mps 741 mmHg 88%
    Show more